Precipitable_Water
0.52 0.52 0.52 0.52 0.50 0.50 0.48 0.48 0.48 0.46 0.46 0.46 0.46 0.46 0.46 0.46 0.44 0.44 0.44 0.42 0.42 0.42 0.40 0.40 0.40 0.40 0.38 0.38 0.38 0.38 0.36 0.36 0.34 0.32 0.30 0.30 0.28 0.28 0.28 0.28 0.28 0.26 0.26 0.26 0.26 0.26 0.26 0.24 0.24 0.24 0.24 0.24 0.24 0.24 0.26 0.28 0.28 0.28 0.28 0.28 0.26 0.26 0.28 0.28 0.30 0.30 0.32 0.34 0.34
0.52 0.52 0.50 0.50 0.48 0.48 0.48 0.48 0.46 0.46 0.46 0.46 0.46 0.46 0.44 0.44 0.44 0.42 0.42 0.42 0.40 0.40 0.40 0.38 0.38 0.38 0.38 0.38 0.36 0.36 0.34 0.32 0.30 0.30 0.30 0.28 0.28 0.26 0.26 0.26 0.26 0.26 0.26 0.26 0.26 0.24 0.24 0.24 0.24 0.24 0.24 0.24 0.24 0.24 0.24 0.26 0.28 0.28 0.28 0.28 0.28 0.28 0.28 0.28 0.28 0.28 0.30 0.30 0.32
0.50 0.50 0.50 0.48 0.48 0.48 0.46 0.46 0.46 0.46 0.46 0.46 0.46 0.46 0.44 0.44 0.42 0.42 0.40 0.40 0.40 0.40 0.40 0.38 0.38 0.38 0.38 0.36 0.36 0.34 0.32 0.30 0.30 0.28 0.28 0.26 0.26 0.26 0.24 0.24 0.24 0.24 0.24 0.24 0.24 0.24 0.24 0.24 0.24 0.24 0.24 0.24 0.22 0.22 0.22 0.24 0.26 0.28 0.28 0.28 0.28 0.28 0.28 0.28 0.28 0.28 0.28 0.28 0.30
0.50 0.50 0.48 0.48 0.46 0.46 0.46 0.44 0.44 0.44 0.44 0.44 0.46 0.46 0.44 0.44 0.42 0.42 0.40 0.40 0.40 0.40 0.38 0.38 0.38 0.36 0.36 0.36 0.34 0.32 0.30 0.30 0.28 0.28 0.26 0.26 0.24 0.24 0.24 0.24 0.22 0.22 0.22 0.24 0.24 0.24 0.24 0.24 0.24 0.24 0.24 0.24 0.22 0.22 0.22 0.22 0.24 0.24 0.26 0.26 0.26 0.28 0.28 0.28 0.30 0.30 0.30 0.28 0.28
0.50 0.50 0.48 0.46 0.46 0.46 0.44 0.44 0.44 0.44 0.44 0.46 0.44 0.44 0.44 0.44 0.42 0.42 0.40 0.40 0.38 0.38 0.36 0.36 0.36 0.36 0.34 0.32 0.32 0.30 0.28 0.28 0.26 0.26 0.26 0.24 0.24 0.24 0.22 0.22 0.22 0.22 0.22 0.22 0.22 0.24 0.24 0.24 0.24 0.24 0.24 0.24 0.22 0.22 0.22 0.22 0.22 0.24 0.24 0.24 0.26 0.26 0.28 0.28 0.30 0.30 0.30 0.28 0.28
0.50 0.48 0.48 0.46 0.46 0.46 0.46 0.46 0.44 0.46 0.46 0.44 0.44 0.42 0.42 0.42 0.40 0.40 0.38 0.38 0.38 0.36 0.36 0.34 0.34 0.32 0.32 0.30 0.30 0.28 0.26 0.26 0.26 0.24 0.24 0.24 0.24 0.22 0.22 0.22 0.22 0.22 0.22 0.22 0.24 0.24 0.24 0.26 0.24 0.24 0.24 0.24 0.24 0.22 0.22 0.22 0.22 0.22 0.22 0.22 0.24 0.24 0.26 0.26 0.28 0.30 0.30 0.30 0.30
0.48 0.48 0.48 0.46 0.46 0.46 0.46 0.46 0.46 0.46 0.44 0.44 0.42 0.42 0.42 0.42 0.40 0.38 0.38 0.36 0.36 0.34 0.34 0.34 0.32 0.30 0.30 0.30 0.28 0.28 0.26 0.26 0.24 0.24 0.24 0.24 0.24 0.24 0.22 0.22 0.24 0.24 0.24 0.24 0.24 0.24 0.26 0.26 0.26 0.26 0.24 0.24 0.24 0.24 0.22 0.22 0.22 0.22 0.22 0.22 0.22 0.24 0.24 0.26 0.26 0.28 0.28 0.28 0.28
0.48 0.46 0.46 0.46 0.46 0.46 0.46 0.46 0.46 0.44 0.44 0.42 0.42 0.42 0.40 0.40 0.38 0.38 0.36 0.36 0.34 0.34 0.32 0.32 0.30 0.30 0.28 0.28 0.28 0.28 0.26 0.26 0.24 0.24 0.24 0.24 0.24 0.24 0.24 0.24 0.24 0.24 0.24 0.24 0.24 0.24 0.24 0.24 0.24 0.24 0.24 0.24 0.24 0.24 0.24 0.24 0.24 0.24 0.24 0.22 0.22 0.24 0.24 0.24 0.26 0.28 0.28 0.28 0.28
0.44 0.44 0.44 0.46 0.46 0.46 0.46 0.44 0.44 0.42 0.42 0.42 0.42 0.42 0.40 0.40 0.38 0.36 0.34 0.34 0.34 0.32 0.32 0.30 0.30 0.30 0.28 0.28 0.28 0.28 0.26 0.26 0.26 0.24 0.24 0.24 0.24 0.24 0.24 0.22 0.22 0.22 0.24 0.24 0.22 0.22 0.24 0.24 0.24 0.24 0.24 0.24 0.24 0.24 0.24 0.24 0.24 0.24 0.24 0.24 0.24 0.24 0.24 0.24 0.26 0.28 0.28 0.28 0.28
0.44 0.44 0.44 0.44 0.44 0.42 0.42 0.42 0.42 0.42 0.42 0.42 0.40 0.40 0.38 0.38 0.36 0.34 0.34 0.34 0.32 0.32 0.30 0.30 0.30 0.30 0.28 0.28 0.28 0.28 0.26 0.26 0.26 0.24 0.24 0.24 0.24 0.24 0.22 0.22 0.22 0.22 0.22 0.22 0.22 0.22 0.22 0.22 0.22 0.22 0.22 0.22 0.24 0.24 0.24 0.24 0.24 0.24 0.24 0.26 0.26 0.24 0.24 0.24 0.26 0.26 0.26 0.28 0.28
0.44 0.44 0.44 0.42 0.42 0.42 0.42 0.42 0.42 0.42 0.40 0.38 0.38 0.38 0.38 0.36 0.36 0.34 0.34 0.32 0.32 0.30 0.30 0.30 0.30 0.30 0.28 0.28 0.28 0.28 0.26 0.26 0.24 0.24 0.24 0.22 0.22 0.22 0.22 0.22 0.22 0.22 0.22 0.20 0.22 0.22 0.22 0.22 0.22 0.22 0.22 0.22 0.22 0.22 0.24 0.24 0.24 0.24 0.26 0.26 0.26 0.26 0.24 0.24 0.24 0.26 0.26 0.26 0.28
0.44 0.44 0.42 0.42 0.42 0.42 0.42 0.42 0.42 0.40 0.38 0.38 0.38 0.36 0.36 0.36 0.34 0.34 0.32 0.32 0.30 0.30 0.30 0.30 0.30 0.28 0.28 0.28 0.26 0.26 0.26 0.24 0.24 0.22 0.22 0.22 0.22 0.20 0.20 0.20 0.20 0.20 0.20 0.20 0.22 0.22 0.22 0.22 0.22 0.22 0.22 0.22 0.22 0.22 0.24 0.24 0.24 0.24 0.24 0.26 0.26 0.26 0.26 0.26 0.26 0.26 0.26 0.26 0.28
0.44 0.44 0.44 0.44 0.44 0.44 0.42 0.42 0.40 0.38 0.38 0.38 0.36 0.36 0.36 0.34 0.34 0.32 0.30 0.30 0.30 0.30 0.30 0.30 0.28 0.28 0.26 0.26 0.26 0.24 0.24 0.22 0.22 0.22 0.20 0.20 0.20 0.20 0.20 0.20 0.20 0.20 0.20 0.22 0.22 0.22 0.22 0.22 0.22 0.22 0.22 0.22 0.22 0.24 0.24 0.24 0.24 0.24 0.24 0.24 0.24 0.26 0.26 0.26 0.26 0.26 0.28 0.28 0.28
0.44 0.44 0.44 0.44 0.44 0.42 0.40 0.40 0.38 0.38 0.36 0.36 0.36 0.34 0.34 0.34 0.32 0.32 0.30 0.30 0.30 0.30 0.30 0.28 0.28 0.26 0.26 0.24 0.24 0.24 0.22 0.22 0.22 0.20 0.20 0.20 0.20 0.20 0.20 0.20 0.20 0.20 0.22 0.22 0.22 0.22 0.22 0.22 0.22 0.22 0.22 0.22 0.22 0.22 0.24 0.24 0.24 0.24 0.24 0.24 0.24 0.24 0.24 0.26 0.26 0.26 0.26 0.28 0.28
0.44 0.44 0.44 0.42 0.42 0.40 0.40 0.38 0.38 0.36 0.36 0.34 0.34 0.34 0.32 0.32 0.32 0.32 0.30 0.30 0.30 0.30 0.28 0.28 0.28 0.26 0.24 0.24 0.24 0.22 0.22 0.22 0.22 0.20 0.20 0.20 0.20 0.20 0.20 0.20 0.20 0.20 0.22 0.22 0.22 0.22 0.22 0.22 0.22 0.22 0.22 0.22 0.22 0.22 0.22 0.24 0.24 0.24 0.24 0.24 0.24 0.24 0.24 0.24 0.26 0.26 0.26 0.26 0.28
0.44 0.44 0.42 0.40 0.40 0.40 0.38 0.38 0.38 0.36 0.34 0.34 0.32 0.32 0.32 0.32 0.32 0.32 0.32 0.30 0.30 0.30 0.28 0.28 0.26 0.26 0.24 0.24 0.22 0.22 0.22 0.22 0.20 0.20 0.20 0.20 0.20 0.20 0.20 0.20 0.20 0.20 0.20 0.20 0.22 0.22 0.22 0.22 0.22 0.22 0.22 0.22 0.22 0.22 0.22 0.24 0.24 0.24 0.24 0.24 0.24 0.24 0.24 0.24 0.26 0.26 0.26 0.26 0.28
0.44 0.42 0.40 0.40 0.38 0.38 0.38 0.36 0.36 0.34 0.34 0.32 0.32 0.32 0.32 0.32 0.32 0.32 0.30 0.30 0.30 0.28 0.28 0.26 0.26 0.24 0.24 0.22 0.22 0.22 0.22 0.20 0.20 0.20 0.20 0.20 0.20 0.20 0.20 0.20 0.20 0.20 0.20 0.20 0.20 0.20 0.20 0.22 0.22 0.22 0.22 0.22 0.22 0.22 0.24 0.24 0.24 0.24 0.24 0.24 0.24 0.24 0.24 0.26 0.26 0.26 0.26 0.26 0.26
0.42 0.40 0.40 0.38 0.38 0.38 0.36 0.36 0.34 0.34 0.32 0.32 0.32 0.32 0.32 0.32 0.32 0.32 0.30 0.30 0.30 0.28 0.28 0.26 0.26 0.24 0.24 0.22 0.22 0.22 0.22 0.20 0.20 0.20 0.20 0.20 0.20 0.20 0.20 0.20 0.20 0.20 0.20 0.20 0.20 0.20 0.20 0.20 0.22 0.22 0.22 0.22 0.22 0.22 0.24 0.24 0.24 0.24 0.24 0.24 0.24 0.24 0.24 0.26 0.26 0.26 0.26 0.26 0.26
0.40 0.40 0.38 0.38 0.36 0.36 0.36 0.34 0.34 0.34 0.32 0.32 0.32 0.32 0.32 0.32 0.32 0.32 0.30 0.30 0.30 0.28 0.28 0.26 0.26 0.24 0.24 0.22 0.22 0.20 0.20 0.20 0.20 0.20 0.20 0.20 0.20 0.20 0.20 0.20 0.20 0.20 0.20 0.20 0.20 0.20 0.20 0.22 0.22 0.22 0.22 0.22 0.22 0.22 0.22 0.24 0.24 0.24 0.24 0.24 0.24 0.24 0.24 0.24 0.26 0.26 0.26 0.26 0.26
0.40 0.38 0.38 0.36 0.36 0.36 0.34 0.34 0.34 0.34 0.32 0.32 0.32 0.32 0.32 0.32 0.32 0.32 0.30 0.30 0.28 0.28 0.26 0.26 0.24 0.24 0.22 0.20 0.20 0.20 0.20 0.20 0.20 0.20 0.20 0.20 0.20 0.20 0.20 0.20 0.20 0.20 0.20 0.20 0.20 0.20 0.20 0.22 0.22 0.22 0.22 0.22 0.22 0.22 0.22 0.22 0.22 0.24 0.24 0.24 0.24 0.24 0.24 0.26 0.26 0.26 0.26 0.26 0.26
0.38 0.38 0.36 0.36 0.36 0.34 0.34 0.34 0.34 0.34 0.34 0.34 0.34 0.32 0.32 0.32 0.32 0.32 0.30 0.30 0.28 0.28 0.26 0.24 0.24 0.22 0.22 0.20 0.20 0.20 0.20 0.20 0.20 0.20 0.20 0.20 0.20 0.20 0.20 0.20 0.20 0.20 0.20 0.20 0.20 0.20 0.20 0.22 0.22 0.22 0.22 0.22 0.22 0.22 0.22 0.22 0.22 0.24 0.24 0.24 0.24 0.24 0.24 0.26 0.26 0.26 0.26 0.26 0.28
0.38 0.36 0.36 0.36 0.34 0.34 0.34 0.34 0.34 0.34 0.34 0.34 0.34 0.34 0.34 0.34 0.32 0.32 0.32 0.30 0.28 0.26 0.26 0.24 0.22 0.22 0.20 0.20 0.18 0.18 0.18 0.18 0.18 0.20 0.20 0.20 0.20 0.20 0.20 0.20 0.20 0.20 0.20 0.20 0.20 0.20 0.22 0.22 0.22 0.22 0.22 0.22 0.22 0.22 0.22 0.24 0.24 0.24 0.24 0.24 0.24 0.24 0.26 0.26 0.26 0.28 0.28 0.28 0.28
0.38 0.36 0.36 0.34 0.34 0.34 0.34 0.34 0.34 0.34 0.34 0.34 0.34 0.34 0.34 0.34 0.32 0.32 0.32 0.30 0.28 0.26 0.24 0.22 0.22 0.20 0.20 0.18 0.18 0.18 0.18 0.18 0.18 0.20 0.20 0.20 0.20 0.20 0.20 0.20 0.20 0.20 0.20 0.20 0.20 0.20 0.22 0.22 0.22 0.22 0.22 0.22 0.22 0.24 0.24 0.24 0.24 0.24 0.24 0.24 0.26 0.26 0.28 0.28 0.28 0.28 0.28 0.28 0.30
0.36 0.36 0.36 0.34 0.34 0.34 0.34 0.34 0.34 0.34 0.34 0.34 0.34 0.34 0.34 0.32 0.32 0.32 0.30 0.28 0.26 0.26 0.24 0.22 0.22 0.20 0.18 0.18 0.18 0.18 0.18 0.18 0.18 0.18 0.18 0.20 0.20 0.20 0.20 0.20 0.20 0.20 0.20 0.20 0.20 0.20 0.22 0.22 0.22 0.22 0.22 0.22 0.24 0.24 0.24 0.24 0.24 0.26 0.26 0.26 0.26 0.28 0.28 0.28 0.30 0.30 0.30 0.30 0.30
0.36 0.36 0.36 0.34 0.34 0.34 0.34 0.34 0.34 0.34 0.34 0.34 0.34 0.32 0.32 0.32 0.32 0.30 0.30 0.26 0.26 0.24 0.22 0.22 0.20 0.20 0.18 0.18 0.18 0.18 0.18 0.18 0.18 0.18 0.18 0.20 0.20 0.20 0.20 0.20 0.20 0.20 0.20 0.20 0.20 0.20 0.20 0.22 0.22 0.22 0.24 0.24 0.24 0.24 0.24 0.26 0.26 0.26 0.26 0.26 0.26 0.28 0.28 0.28 0.30 0.30 0.30 0.32 0.32
0.36 0.36 0.34 0.34 0.34 0.34 0.34 0.34 0.34 0.34 0.34 0.34 0.34 0.32 0.32 0.32 0.30 0.30 0.28 0.24 0.24 0.22 0.20 0.20 0.18 0.18 0.18 0.18 0.18 0.18 0.18 0.18 0.18 0.18 0.18 0.18 0.18 0.18 0.20 0.20 0.20 0.20 0.20 0.20 0.20 0.20 0.22 0.22 0.24 0.24 0.24 0.26 0.26 0.26 0.26 0.26 0.26 0.28 0.28 0.28 0.28 0.28 0.28 0.28 0.30 0.30 0.32 0.32 0.32
0.36 0.36 0.34 0.36 0.36 0.36 0.36 0.34 0.34 0.34 0.34 0.34 0.32 0.32 0.30 0.30 0.28 0.28 0.26 0.22 0.22 0.20 0.20 0.18 0.18 0.18 0.18 0.16 0.16 0.18 0.18 0.18 0.18 0.18 0.18 0.18 0.18 0.18 0.18 0.18 0.20 0.20 0.20 0.20 0.22 0.22 0.22 0.22 0.24 0.26 0.26 0.26 0.28 0.28 0.28 0.28 0.28 0.28 0.28 0.28 0.30 0.30 0.30 0.30 0.30 0.30 0.32 0.32 0.34
0.36 0.36 0.36 0.36 0.36 0.36 0.36 0.36 0.34 0.34 0.34 0.34 0.32 0.30 0.30 0.28 0.28 0.26 0.24 0.22 0.20 0.18 0.18 0.16 0.16 0.16 0.16 0.16 0.16 0.16 0.16 0.18 0.18 0.18 0.18 0.18 0.18 0.18 0.18 0.18 0.20 0.20 0.20 0.22 0.22 0.22 0.24 0.26 0.26 0.26 0.28 0.28 0.28 0.28 0.28 0.28 0.28 0.28 0.30 0.30 0.30 0.30 0.30 0.30 0.30 0.30 0.32 0.32 0.34
0.36 0.36 0.36 0.36 0.36 0.36 0.36 0.36 0.34 0.34 0.34 0.32 0.32 0.30 0.28 0.28 0.26 0.24 0.22 0.20 0.18 0.16 0.16 0.16 0.15 0.15 0.15 0.16 0.16 0.16 0.16 0.18 0.18 0.18 0.18 0.18 0.18 0.18 0.18 0.20 0.20 0.20 0.20 0.22 0.22 0.24 0.24 0.26 0.28 0.28 0.30 0.30 0.30 0.30 0.30 0.30 0.30 0.30 0.30 0.30 0.30 0.30 0.30 0.30 0.30 0.30 0.32 0.32 0.32
0.38 0.36 0.36 0.36 0.36 0.36 0.36 0.36 0.34 0.34 0.32 0.32 0.30 0.28 0.26 0.26 0.24 0.22 0.20 0.18 0.16 0.15 0.15 0.15 0.15 0.15 0.15 0.16 0.16 0.16 0.16 0.16 0.16 0.18 0.18 0.18 0.18 0.18 0.18 0.20 0.20 0.20 0.22 0.22 0.24 0.26 0.28 0.28 0.30 0.30 0.30 0.32 0.32 0.32 0.32 0.30 0.30 0.30 0.30 0.30 0.30 0.30 0.30 0.30 0.30 0.30 0.32 0.32 0.32
0.38 0.38 0.38 0.36 0.36 0.36 0.36 0.36 0.34 0.32 0.32 0.30 0.28 0.26 0.24 0.22 0.20 0.20 0.18 0.15 0.15 0.15 0.15 0.15 0.15 0.15 0.16 0.16 0.16 0.16 0.16 0.16 0.16 0.16 0.16 0.18 0.18 0.18 0.18 0.20 0.20 0.22 0.22 0.24 0.24 0.28 0.30 0.30 0.32 0.32 0.32 0.32 0.32 0.32 0.32 0.32 0.30 0.30 0.30 0.30 0.30 0.30 0.30 0.30 0.30 0.30 0.32 0.32 0.32
0.38 0.38 0.36 0.36 0.36 0.36 0.34 0.34 0.32 0.30 0.30 0.28 0.26 0.24 0.22 0.18 0.18 0.16 0.16 0.15 0.15 0.15 0.15 0.15 0.15 0.15 0.15 0.15 0.15 0.15 0.15 0.15 0.16 0.16 0.18 0.18 0.18 0.18 0.20 0.20 0.22 0.22 0.24 0.24 0.28 0.28 0.30 0.32 0.32 0.32 0.32 0.32 0.32 0.32 0.32 0.32 0.32 0.30 0.30 0.30 0.30 0.32 0.32 0.32 0.32 0.32 0.32 0.32 0.32
0.38 0.38 0.36 0.36 0.34 0.34 0.32 0.32 0.30 0.28 0.26 0.24 0.22 0.20 0.18 0.16 0.16 0.15 0.15 0.15 0.15 0.15 0.15 0.15 0.15 0.15 0.15 0.15 0.15 0.15 0.15 0.16 0.16 0.16 0.18 0.18 0.18 0.20 0.20 0.22 0.22 0.24 0.26 0.26 0.30 0.30 0.32 0.32 0.32 0.32 0.34 0.34 0.32 0.32 0.32 0.32 0.32 0.32 0.32 0.32 0.32 0.32 0.32 0.32 0.32 0.32 0.32 0.32 0.32
0.38 0.36 0.36 0.34 0.34 0.32 0.30 0.30 0.28 0.26 0.24 0.22 0.20 0.18 0.16 0.16 0.15 0.15 0.15 0.15 0.15 0.15 0.15 0.15 0.15 0.15 0.15 0.15 0.15 0.15 0.15 0.16 0.16 0.16 0.18 0.18 0.20 0.20 0.22 0.22 0.24 0.26 0.28 0.30 0.30 0.32 0.32 0.32 0.32 0.34 0.34 0.34 0.32 0.32 0.32 0.32 0.32 0.32 0.32 0.32 0.32 0.32 0.32 0.32 0.32 0.32 0.32 0.32 0.32
0.38 0.36 0.34 0.34 0.32 0.30 0.30 0.28 0.26 0.22 0.20 0.20 0.18 0.16 0.16 0.15 0.15 0.15 0.15 0.15 0.15 0.15 0.15 0.15 0.15 0.15 0.15 0.15 0.15 0.16 0.16 0.16 0.16 0.18 0.18 0.20 0.20 0.22 0.22 0.24 0.26 0.28 0.28 0.30 0.32 0.32 0.32 0.32 0.34 0.34 0.34 0.34 0.34 0.32 0.32 0.32 0.32 0.32 0.32 0.32 0.32 0.32 0.32 0.32 0.32 0.32 0.34 0.34 0.34
0.36 0.36 0.34 0.32 0.30 0.28 0.28 0.26 0.24 0.20 0.18 0.18 0.16 0.15 0.15 0.15 0.15 0.15 0.15 0.15 0.15 0.15 0.15 0.15 0.15 0.15 0.15 0.15 0.15 0.16 0.16 0.16 0.18 0.18 0.18 0.20 0.22 0.24 0.24 0.26 0.26 0.28 0.30 0.32 0.32 0.32 0.32 0.34 0.34 0.34 0.34 0.34 0.34 0.32 0.32 0.32 0.32 0.32 0.32 0.32 0.32 0.32 0.32 0.32 0.32 0.34 0.34 0.34 0.34
0.34 0.34 0.32 0.30 0.28 0.28 0.26 0.22 0.20 0.18 0.16 0.16 0.15 0.15 0.15 0.15 0.15 0.15 0.15 0.15 0.15 0.15 0.13 0.13 0.15 0.15 0.15 0.15 0.15 0.16 0.16 0.16 0.18 0.18 0.20 0.22 0.22 0.24 0.26 0.26 0.28 0.30 0.30 0.32 0.32 0.32 0.34 0.34 0.34 0.34 0.34 0.34 0.34 0.34 0.32 0.32 0.32 0.32 0.32 0.32 0.32 0.32 0.32 0.32 0.34 0.34 0.34 0.34 0.34
0.34 0.32 0.30 0.28 0.28 0.26 0.24 0.20 0.18 0.16 0.16 0.15 0.15 0.15 0.15 0.15 0.13 0.15 0.15 0.15 0.15 0.13 0.13 0.13 0.13 0.15 0.15 0.15 0.16 0.16 0.16 0.18 0.18 0.20 0.22 0.22 0.24 0.24 0.26 0.28 0.28 0.30 0.32 0.32 0.32 0.32 0.34 0.34 0.34 0.34 0.34 0.34 0.34 0.34 0.32 0.32 0.32 0.32 0.32 0.32 0.32 0.32 0.34 0.34 0.34 0.34 0.34 0.36 0.36
0.32 0.30 0.28 0.28 0.26 0.24 0.22 0.18 0.16 0.16 0.15 0.15 0.15 0.13 0.13 0.13 0.15 0.15 0.15 0.15 0.15 0.13 0.13 0.13 0.13 0.15 0.15 0.16 0.16 0.16 0.18 0.18 0.20 0.22 0.22 0.24 0.26 0.26 0.28 0.28 0.30 0.30 0.32 0.32 0.32 0.34 0.34 0.34 0.34 0.34 0.34 0.34 0.34 0.34 0.34 0.34 0.32 0.32 0.32 0.32 0.32 0.34 0.34 0.34 0.34 0.34 0.36 0.36 0.36
0.30 0.28 0.28 0.26 0.24 0.24 0.20 0.16 0.16 0.15 0.15 0.15 0.15 0.13 0.15 0.15 0.15 0.15 0.15 0.15 0.15 0.13 0.13 0.13 0.15 0.15 0.16 0.16 0.16 0.18 0.18 0.20 0.22 0.24 0.24 0.26 0.26 0.28 0.28 0.28 0.30 0.30 0.32 0.32 0.32 0.34 0.34 0.34 0.34 0.34 0.34 0.34 0.34 0.34 0.34 0.34 0.34 0.32 0.32 0.32 0.34 0.34 0.34 0.34 0.34 0.34 0.34 0.36 0.36
0.28 0.28 0.26 0.26 0.24 0.22 0.20 0.16 0.15 0.15 0.15 0.15 0.15 0.15 0.15 0.15 0.13 0.13 0.13 0.13 0.13 0.13 0.13 0.13 0.15 0.15 0.16 0.16 0.18 0.18 0.20 0.20 0.22 0.24 0.26 0.26 0.28 0.28 0.30 0.30 0.30 0.30 0.32 0.32 0.32 0.34 0.34 0.34 0.34 0.34 0.34 0.34 0.34 0.34 0.34 0.34 0.34 0.32 0.32 0.32 0.34 0.34 0.34 0.34 0.34 0.34 0.34 0.34 0.34
Wind_Speed
35 35 35 35 35 36 36 36 36 37 37 37 38 38 38 38 39 39 39 40 40 40 41 41 41 42 42 42 43 43 43 43 43 43 43 43 43 43 43 43 43 43 44 44 45 45 45 45 46 46 46 47 47 48 48 48 49 49 50 50 50 51 51 52 52 52 52 52 52
35 35 35 35 35 36 36 36 37 37 37 38 38 38 38 39 39 39 40 40 41 41 41 42 42 42 42 43 43 43 43 43 42 42 42 42 42 42 42 43 43 43 44 44 44 45 45 46 46 46 47 47 47 48 48 49 49 49 50 51 51 51 51 52 52 53 53 53 52
35 35 35 35 36 36 36 36 37 37 38 38 38 38 39 39 40 40 40 41 41 41 42 42 42 42 43 43 43 42 42 42 42 42 42 42 42 42 42 43 43 43 44 44 44 45 45 46 46 47 47 47 48 48 49 49 50 50 51 51 51 51 51 52 52 52 52 52 52
35 35 36 36 36 36 36 37 37 38 38 38 39 39 39 40 40 41 41 41 42 42 42 42 42 42 42 42 42 42 42 42 42 42 42 42 42 42 43 43 43 44 44 45 45 46 46 46 47 47 47 48 49 49 49 49 50 50 51 51 52 52 52 52 52 52 52 52 52
35 36 36 36 36 36 37 37 38 38 38 39 39 39 40 40 41 41 41 41 42 42 42 42 42 42 42 42 42 42 41 41 41 42 42 42 42 43 43 43 44 44 45 45 46 46 47 47 47 48 48 49 49 49 50 50 51 51 51 52 52 52 52 53 53 52 52 51 51
35 36 36 36 36 37 37 38 38 38 39 39 39 40 40 41 41 41 41 41 42 42 42 42 42 42 42 42 41 41 41 41 41 42 42 43 43 43 44 44 45 45 45 46 46 47 47 48 48 48 49 49 50 50 51 51 51 52 52 52 53 53 53 53 53 52 52 52 51
35 36 36 36 37 37 38 38 38 38 39 39 40 40 40 41 41 41 41 42 42 42 42 42 41 41 41 41 41 41 41 41 42 42 43 43 44 44 44 45 45 46 46 47 47 48 48 48 48 49 49 50 50 51 51 51 52 52 52 52 53 53 53 53 53 52 52 52 52
35 36 36 36 37 37 38 38 38 38 39 39 40 40 41 41 41 41 41 41 41 41 41 41 41 41 41 41 41 41 41 42 42 43 43 44 44 45 45 46 46 47 47 48 48 48 48 48 48 49 49 50 50 50 51 51 52 52 52 52 53 52 52 52 52 52 52 52 52
35 36 36 37 37 37 37 38 38 39 39 40 40 40 40 41 41 41 41 41 41 41 40 40 40 40 41 41 41 42 42 43 43 44 44 45 45 46 46 47 47 48 48 48 48 49 49 49 49 49 49 50 50 50 51 51 52 52 52 52 52 52 52 52 52 52 53 53 53
35 36 36 36 36 37 37 38 38 39 39 40 40 40 40 40 41 41 40 40 40 40 40 40 40 40 41 41 42 42 43 44 44 45 45 46 46 47 47 47 48 48 49 49 49 49 49 49 49 50 50 50 51 51 51 51 52 52 52 52 51 52 52 52 52 53 53 53 53
35 35 36 36 36 37 37 38 39 39 39 40 40 40 40 40 40 40 40 40 40 40 40 40 40 40 41 42 42 43 44 44 45 45 46 47 47 48 48 48 49 49 49 49 49 49 49 49 50 50 51 51 51 51 51 51 51 52 52 52 52 52 52 53 53 53 53 54 54
35 35 35 36 36 37 38 38 39 39 39 40 40 40 40 40 40 39 39 39 39 39 39 40 40 41 42 42 43 44 45 45 46 46 47 48 48 49 49 49 50 50 50 50 50 50 50 50 50 51 51 51 51 50 51 51 51 51 52 52 52 52 52 53 53 52 52 53 53
34 35 35 36 37 37 38 38 38 39 39 39 39 39 39 39 39 39 38 38 39 39 39 40 41 42 42 43 44 45 45 46 47 47 48 48 49 49 50 50 50 50 50 50 50 50 50 50 51 51 51 51 51 50 51 51 51 52 52 52 52 52 52 52 52 52 51 52 52
34 35 36 36 37 37 38 38 38 39 39 39 39 39 38 38 38 38 38 38 38 39 40 41 42 42 43 44 45 46 46 47 48 48 49 49 50 50 50 50 51 51 51 50 50 50 50 50 50 51 51 51 51 51 51 51 52 52 52 52 52 52 51 51 51 50 50 50 50
35 35 36 36 36 37 37 38 38 38 38 38 38 38 38 37 37 37 37 38 39 40 41 42 43 43 44 45 46 47 47 48 49 49 50 50 50 50 51 51 51 51 50 50 50 50 50 50 51 51 51 51 52 52 52 52 52 52 51 51 51 50 50 49 49 48 48 48 48
35 35 36 36 36 37 37 37 37 38 38 38 38 37 37 37 37 37 38 38 40 41 42 43 44 45 45 46 47 48 48 49 49 50 50 50 50 50 50 50 50 50 50 50 50 50 50 50 51 51 51 52 52 52 52 52 51 51 50 50 49 49 48 47 47 46 46 46 45
35 35 36 36 36 36 37 37 37 37 37 37 37 37 37 37 37 37 38 39 40 42 43 44 45 45 46 47 47 48 48 49 49 50 50 50 50 50 50 50 50 50 50 50 50 50 51 51 51 51 51 52 52 52 51 51 50 49 49 48 47 46 46 45 44 44 43 43 43
35 35 35 35 36 36 36 37 37 37 37 37 37 36 36 36 37 38 39 40 42 43 44 45 46 46 47 48 48 48 49 49 50 50 50 50 50 50 50 50 50 50 50 50 50 51 51 51 51 51 51 51 51 50 50 49 48 47 47 46 45 44 43 43 42 41 41 41 41
34 34 35 35 35 36 36 37 37 37 37 37 36 36 36 37 38 39 40 42 43 44 45 46 47 47 48 48 49 49 49 49 50 50 50 50 50 50 50 50 50 50 50 50 50 51 51 51 51 50 50 50 49 48 48 47 46 45 44 43 42 42 41 41 40 40 40 40 40
34 34 34 35 35 36 36 37 37 37 36 36 36 37 37 38 39 40 42 43 44 45 46 47 48 48 48 49 49 49 49 49 49 49 49 49 49 49 49 50 50 50 50 50 50 50 50 50 50 49 48 48 47 46 45 44 43 42 41 40 40 39 39 39 39 39 39 39 39
33 34 34 35 35 36 36 36 36 36 36 36 37 37 38 39 41 42 43 44 45 46 47 48 48 49 49 49 49 49 49 49 49 49 49 49 49 49 49 50 50 50 50 50 50 49 49 48 48 47 46 46 45 44 43 42 41 40 39 38 38 38 38 38 38 38 38 38 38
33 34 34 35 35 36 36 36 36 36 36 37 37 38 40 41 42 43 44 45 46 47 48 48 49 49 49 49 49 49 49 49 48 48 48 49 49 49 49 49 49 49 49 49 48 48 47 46 45 45 44 43 42 41 40 39 38 38 38 37 37 38 38 38 38 38 38 38 38
33 34 34 35 35 35 36 36 36 36 37 38 39 40 41 42 43 44 45 46 47 48 48 49 49 49 49 49 49 49 49 49 49 48 48 48 49 49 49 49 49 48 48 47 46 45 44 44 43 42 41 40 39 38 37 37 37 37 37 37 37 37 37 37 37 37 37 37 37
33 34 34 35 35 35 35 36 36 37 38 39 40 41 42 43 44 45 46 47 48 49 49 49 49 49 49 49 49 48 48 48 48 48 48 48 48 48 48 48 47 46 46 44 43 42 41 41 40 39 38 37 37 36 35 35 35 35 36 36 36 36 36 36 36 36 36 36 36
33 34 34 34 35 35 35 36 37 38 39 40 41 42 43 44 45 46 47 48 49 49 49 49 49 49 48 48 48 48 48 48 48 48 48 48 48 47 47 46 45 44 43 42 41 41 40 39 38 37 36 36 35 35 34 35 35 35 35 35 35 35 35 35 35 35 35 35 35
33 33 34 34 35 35 36 37 38 39 40 41 42 43 44 45 46 47 48 49 49 49 49 49 49 48 48 48 48 47 47 47 47 47 47 47 46 46 45 44 42 41 41 40 40 39 39 38 37 36 35 34 34 34 34 34 34 34 34 34 34 34 34 34 34 34 34 34 34
33 33 34 34 35 36 36 37 39 40 41 42 43 44 45 46 47 48 49 49 49 49 49 48 48 48 47 47 47 47 47 46 46 46 46 45 45 44 43 42 40 39 39 39 38 38 37 36 36 35 34 34 34 34 34 34 33 33 33 33 33 33 33 34 34 33 33 33 33
33 33 34 35 35 36 37 39 40 41 42 43 44 45 46 47 48 48 49 49 49 49 48 47 47 47 46 46 46 46 46 46 45 45 44 44 43 42 41 40 39 38 38 37 37 37 36 35 35 34 34 33 33 33 33 33 33 33 32 32 32 32 32 32 32 32 32 32 32
33 33 34 35 36 37 38 40 41 42 43 44 45 46 47 48 48 49 49 49 48 48 47 47 46 46 46 46 46 46 45 45 44 43 42 42 41 40 39 38 38 37 37 36 36 35 35 34 34 33 33 33 33 32 32 32 32 31 31 31 31 31 31 31 31 31 31 31 31
33 34 35 36 37 38 40 41 41 42 43 44 46 47 47 48 48 48 48 48 47 47 46 46 46 46 46 46 45 45 44 43 42 41 40 40 39 39 38 37 36 36 35 35 35 34 34 33 33 33 33 32 32 31 31 31 31 30 30 30 30 30 30 30 31 31 31 31 31
33 35 36 37 38 39 40 41 42 43 44 45 46 47 48 48 48 48 47 47 47 47 46 46 46 46 46 45 44 43 42 41 40 39 39 38 38 38 37 36 35 35 34 34 33 33 33 32 32 32 32 31 31 30 30 30 30 30 30 30 30 30 30 31 31 31 31 31 31
34 35 37 38 39 40 41 42 43 44 45 46 47 47 47 47 47 47 47 46 46 46 46 46 46 45 45 44 42 41 40 39 38 38 37 37 37 36 36 35 34 33 33 33 32 32 32 31 31 31 31 30 30 30 29 30 30 30 30 31 31 31 31 31 31 31 32 32 32
35 36 37 39 40 41 42 43 44 45 46 47 47 47 47 47 46 46 46 46 46 46 46 45 45 44 43 42 41 40 39 38 37 37 37 36 36 35 34 33 33 32 32 32 31 31 31 30 30 30 30 30 29 29 29 30 30 30 30 31 31 32 32 32 32 32 32 33 33
36 37 38 39 41 42 43 44 45 46 46 47 47 46 46 46 46 46 46 45 45 45 45 44 43 42 41 40 39 38 37 36 36 36 35 35 34 34 33 32 31 31 31 31 30 30 30 29 29 29 29 29 29 29 29 30 30 30 31 31 32 32 32 33 33 33 33 33 33
36 38 39 40 42 43 44 45 45 46 46 46 46 46 46 45 45 45 45 45 45 44 44 43 42 40 39 38 37 36 36 36 35 35 34 33 33 32 32 32 31 31 30 30 30 29 29 29 29 29 29 29 28 28 29 30 30 31 31 32 32 33 33 33 33 34 34 34 34
37 38 40 41 42 44 44 45 45 46 46 46 45 45 45 45 45 45 45 45 44 44 43 41 40 38 37 36 35 35 35 35 34 34 33 32 32 32 31 31 31 30 30 29 29 28 28 28 28 28 28 28 28 28 29 29 30 31 31 32 32 33 33 33 34 34 34 34 35
38 39 40 42 43 44 45 45 45 45 45 45 45 45 45 45 45 45 44 44 43 43 41 40 38 37 36 35 35 34 34 33 33 32 32 31 31 31 31 31 30 29 29 28 28 27 27 27 28 28 28 28 28 28 29 29 30 30 31 32 32 32 33 33 33 34 34 35 35
38 40 41 42 43 44 45 45 45 45 44 44 44 44 44 44 44 44 44 43 42 41 40 38 36 35 35 34 34 34 33 32 32 31 31 31 30 30 30 30 29 28 28 27 27 27 27 27 27 28 28 28 28 28 29 29 30 30 30 31 31 31 32 32 33 33 34 35 35
39 41 42 43 43 44 44 44 44 44 44 44 44 44 44 44 44 44 43 42 40 39 38 36 35 34 34 33 33 32 32 31 31 30 30 30 30 29 29 29 28 28 27 27 27 27 27 27 27 27 28 28 28 28 28 29 29 30 30 30 30 31 31 32 32 33 33 34 34
40 41 42 43 43 43 43 43 43 43 43 43 44 44 44 44 43 43 42 40 39 37 36 35 34 34 33 32 32 31 31 30 30 29 29 29 29 29 28 28 28 27 27 26 26 26 26 26 27 27 27 27 27 27 28 28 29 29 29 30 30 30 31 31 32 32 32 32 33
40 41 42 42 42 42 42 43 43 43 43 43 43 44 43 43 43 42 40 38 37 36 34 33 33 33 32 31 30 30 30 29 29 29 29 28 28 28 27 27 27 26 26 26 26 26 26 26 26 26 27 26 26 27 27 27 28 29 29 30 30 30 30 31 31 31 31 31 31
Wind_Direction
287 287 287 288 288 288 288 288 288 288 288 289 290 290 291 291 292 292 293 293 293 293 293 292 292 291 291 291 291 290 290 290 289 288 288 287 287 287 286 286 286 286 286 285 285 285 285 284 283 283 282 281 281 280 280 280 280 280 280 279 279 279 278 278 277 277 277 276 276
287 287 287 287 288 288 288 288 288 289 289 290 290 291 292 292 293 293 294 294 293 293 293 292 292 292 291 291 291 291 291 290 290 289 289 288 288 288 288 288 287 287 287 287 286 286 286 285 285 284 283 282 282 281 281 281 280 280 280 279 279 279 278 278 277 277 276 276 276
287 287 288 288 288 288 289 289 290 290 291 291 292 293 293 294 294 294 294 294 294 293 293 293 292 292 292 292 292 291 291 291 290 290 290 290 290 290 289 289 289 289 288 288 288 287 287 286 286 285 284 284 283 282 282 282 281 281 280 280 279 279 279 278 278 277 277 276 276
287 288 288 289 289 290 290 291 291 292 292 293 293 294 294 295 295 295 295 294 294 293 293 293 293 293 292 292 292 292 292 291 291 291 291 291 291 291 291 291 290 290 290 289 289 288 288 287 286 286 285 284 284 283 283 282 282 281 281 280 280 280 279 279 278 278 277 276 275
287 288 289 290 290 291 292 292 293 293 294 294 294 295 295 296 295 295 295 294 294 293 293 293 293 293 293 293 293 292 292 292 292 292 292 292 292 292 292 292 291 291 291 290 290 289 288 288 287 286 286 285 285 284 283 283 283 282 281 281 280 280 279 279 278 278 277 276 275
288 289 290 290 291 292 292 293 293 294 294 294 295 296 296 296 295 295 294 294 294 294 294 294 294 294 293 293 293 293 293 293 293 293 293 293 293 293 293 293 292 292 292 291 290 290 289 289 288 287 287 286 285 285 284 284 283 282 282 281 281 280 279 279 278 277 276 275 274
289 289 290 291 292 292 293 293 294 294 294 295 296 296 296 295 295 295 294 294 294 294 294 294 294 294 294 294 294 294 294 294 294 294 294 294 294 294 294 293 293 293 292 292 291 291 290 289 289 288 287 287 286 286 285 284 284 283 282 281 281 280 279 278 278 277 275 274 272
290 290 291 292 292 293 293 294 294 295 296 296 296 296 295 295 295 295 295 295 295 295 295 295 295 294 294 294 294 294 294 295 295 295 295 295 295 295 294 294 294 293 293 292 292 291 291 290 289 288 288 287 287 286 285 285 284 283 282 281 281 280 279 278 277 276 275 273 272
290 291 292 292 292 293 294 295 296 296 297 297 296 296 295 295 295 295 295 296 296 296 295 295 295 295 295 295 295 295 295 295 295 295 295 295 295 295 295 295 294 294 293 293 292 292 291 290 289 289 288 287 287 286 286 285 284 283 282 281 280 279 278 277 276 275 274 273 271
291 292 292 292 293 294 295 296 297 297 297 296 296 296 296 296 296 296 296 296 296 296 296 295 295 295 295 295 296 296 296 296 296 296 296 296 296 296 295 295 295 294 294 293 293 292 291 290 289 289 288 287 287 286 285 285 284 282 282 281 280 279 278 277 276 274 273 272 271
292 292 292 293 294 295 297 297 297 297 296 296 296 296 297 297 297 297 297 297 297 296 296 296 296 296 296 296 296 296 297 297 297 297 296 296 296 296 296 295 295 295 294 294 293 292 292 291 290 289 288 287 287 286 285 284 283 282 281 280 279 278 277 276 275 274 273 272 271
292 292 293 294 296 297 297 297 297 296 296 296 297 298 298 298 298 298 298 297 297 296 296 296 296 297 297 297 297 297 297 297 297 297 297 297 296 296 296 296 295 295 294 294 293 292 292 290 290 289 288 287 287 286 285 284 283 282 281 280 279 278 277 276 275 274 273 272 271
292 293 295 296 296 297 296 296 296 296 297 298 298 299 299 299 299 298 298 297 297 297 297 297 297 297 297 298 298 298 298 298 298 297 297 297 297 297 296 296 295 295 294 294 293 292 291 290 289 289 288 287 286 285 284 284 283 282 281 280 279 278 277 276 275 274 272 271 270
293 294 295 296 296 296 296 296 297 298 299 299 300 300 300 299 299 298 298 298 297 298 298 298 298 298 299 299 299 299 298 298 298 298 298 297 297 297 296 296 295 295 294 294 293 292 291 290 289 288 287 287 286 285 284 283 283 282 281 280 279 278 277 276 275 273 272 271 269
294 295 295 295 295 295 296 297 298 299 300 300 300 300 300 300 299 299 298 298 299 299 299 299 300 300 300 300 299 299 299 299 298 298 298 297 297 297 296 296 295 295 294 293 292 291 290 289 289 288 287 286 286 285 284 283 282 282 281 280 279 278 277 275 274 273 272 270 269
294 294 294 294 295 296 297 298 299 300 301 301 301 301 300 300 300 299 299 300 300 300 301 301 301 301 301 300 300 300 300 299 299 298 298 297 297 296 296 295 295 294 293 293 292 291 290 289 289 288 287 286 286 285 284 283 282 282 280 279 278 277 276 275 273 272 271 270 269
293 293 294 295 296 297 298 299 300 301 301 301 301 301 301 300 300 300 301 301 301 302 302 302 302 302 302 301 301 300 300 299 299 298 298 297 297 296 296 295 295 294 293 292 292 291 290 289 289 288 287 286 285 285 284 283 282 281 280 279 278 277 275 274 273 271 270 269 268
293 293 295 296 297 298 299 300 301 301 302 302 301 301 301 301 301 302 302 302 303 303 303 303 303 302 302 302 301 301 300 300 299 298 298 297 297 296 296 295 294 294 293 292 292 291 290 289 289 288 287 286 285 285 284 283 282 281 280 278 277 276 274 273 272 271 270 268 267
293 294 296 297 298 299 300 301 301 301 302 302 302 302 302 302 302 303 303 304 304 304 304 304 303 303 302 302 301 301 300 299 299 298 298 297 297 296 295 295 294 294 293 292 292 291 290 290 289 288 287 286 285 285 284 283 282 280 279 277 276 275 274 272 271 270 269 268 267
294 296 297 298 299 300 301 301 301 302 302 302 302 302 302 303 303 304 304 305 305 305 305 304 304 303 303 302 301 301 300 299 299 298 298 297 297 296 295 295 294 294 293 293 292 291 290 289 289 288 287 286 285 285 283 282 281 279 278 276 275 274 273 272 271 270 269 269 268
296 297 298 299 300 300 301 301 302 302 302 302 302 303 303 304 304 305 305 305 305 305 305 305 304 303 303 302 301 301 300 299 299 298 298 297 297 296 296 295 295 294 293 293 292 291 290 289 289 288 287 286 285 284 283 282 280 278 277 276 274 273 272 272 271 270 269 269 268
297 298 299 300 300 301 301 302 302 302 303 303 303 304 304 304 305 305 305 306 306 306 305 305 304 303 303 302 301 301 300 300 299 299 298 298 297 297 296 296 295 294 293 293 292 291 290 290 289 288 287 287 285 284 283 281 279 278 277 275 274 274 273 272 271 270 270 269 268
298 299 300 300 301 301 302 302 302 303 303 304 304 304 305 305 305 305 306 306 306 306 305 305 304 303 303 302 302 301 301 300 300 299 298 298 297 297 296 296 295 294 293 292 292 291 290 290 289 289 288 287 285 284 282 281 279 278 277 276 275 274 273 272 272 271 270 269 268
299 300 300 301 301 302 302 303 303 304 304 304 305 305 305 305 305 305 306 306 306 306 305 305 304 303 303 302 302 301 301 300 300 299 299 298 297 297 296 295 294 294 293 292 292 291 291 290 290 289 288 287 285 284 282 281 280 279 278 277 276 275 274 273 272 271 270 270 269
299 300 301 301 302 302 303 303 304 304 305 305 305 305 305 305 305 306 306 306 306 306 305 305 304 304 303 303 302 302 301 300 300 299 299 298 298 297 296 295 294 294 293 293 292 291 291 290 290 289 288 287 285 284 282 281 280 279 278 277 276 276 275 274 273 272 271 270 269
300 301 301 302 303 303 304 304 305 305 305 305 305 305 305 306 306 306 306 306 306 306 306 305 305 304 304 303 303 302 301 301 300 299 299 298 298 297 296 295 294 294 293 293 292 292 291 290 289 288 287 286 285 284 283 281 280 279 278 277 276 275 275 274 273 272 271 270 269
301 302 302 303 304 304 305 306 306 306 306 306 306 306 306 306 306 307 307 307 306 306 306 306 305 305 304 304 303 302 301 301 300 299 299 298 297 297 296 295 294 294 294 293 293 292 291 290 289 288 287 286 285 284 282 281 280 279 278 277 276 275 275 274 273 272 272 271 270
302 303 304 304 305 306 306 307 307 307 307 307 307 307 307 307 307 307 307 307 307 307 307 306 306 305 305 304 303 302 302 301 300 299 299 298 297 296 296 295 295 294 294 293 293 292 291 290 289 288 286 285 284 283 282 281 280 280 279 278 277 276 275 274 274 273 272 271 270
303 304 305 306 306 307 307 307 307 307 307 308 308 308 308 308 308 308 307 307 307 307 307 306 306 305 305 304 303 303 302 301 300 299 299 298 297 297 296 296 295 295 294 294 293 292 291 290 289 287 286 285 284 283 282 281 281 280 279 278 278 277 276 275 274 273 273 272 270
304 305 306 307 307 308 308 308 308 308 308 309 309 309 309 308 308 308 308 308 307 307 307 307 306 305 305 304 303 303 302 301 300 299 299 298 297 297 297 296 296 295 295 294 294 293 292 290 289 287 286 285 284 283 282 281 281 280 280 279 278 278 277 276 275 274 273 272 271
304 305 306 307 308 308 308 308 309 309 309 309 309 309 309 309 309 308 308 308 308 308 307 307 306 306 305 304 303 303 302 301 300 299 299 298 298 298 297 297 296 296 296 295 294 293 292 290 289 288 286 285 284 283 283 282 281 280 280 279 279 278 277 276 275 274 273 272 271
305 306 307 308 308 308 309 309 309 310 310 310 310 310 310 309 309 309 309 308 308 308 308 307 307 306 305 305 304 303 302 301 300 300 300 299 299 299 298 298 297 297 296 296 295 294 292 291 289 288 287 286 285 284 283 282 281 280 280 279 278 278 277 277 276 275 273 272 272
305 307 307 308 308 309 309 310 310 311 311 311 310 310 310 310 309 309 309 309 309 308 308 308 307 306 306 305 304 303 302 301 301 301 300 300 299 299 299 298 298 298 297 297 295 294 293 291 290 289 288 287 286 285 284 283 282 281 280 279 279 278 277 277 276 275 274 273 272
306 307 308 308 309 310 310 311 311 311 311 311 311 310 310 310 310 310 310 310 309 309 308 308 307 307 306 305 304 303 303 302 302 301 301 300 300 299 299 299 299 299 298 297 296 294 293 292 291 290 289 289 288 286 285 283 282 281 280 280 279 279 278 277 276 275 274 273 272
307 308 308 309 310 311 311 312 312 312 311 311 311 311 311 311 310 310 310 310 310 309 309 308 308 307 306 305 304 303 303 303 302 302 301 301 301 300 300 299 299 299 298 297 296 295 294 293 292 291 291 290 289 288 286 285 284 283 282 281 281 280 279 278 277 276 275 274 273
308 308 309 310 311 312 312 312 312 312 311 311 311 311 311 311 311 311 311 311 310 310 309 309 308 307 306 305 305 304 304 303 303 302 302 302 301 301 300 300 300 300 299 298 297 296 295 294 293 292 292 291 290 289 288 287 286 285 284 283 283 282 281 280 279 277 276 275 274
309 309 310 311 312 312 312 312 312 312 312 312 312 312 312 312 312 312 312 311 311 310 310 309 308 307 306 306 305 305 304 304 303 303 303 302 302 302 301 301 301 300 299 298 297 296 295 294 294 293 293 292 292 291 290 289 288 287 286 285 284 283 282 281 280 279 277 276 276
310 310 311 312 312 312 312 312 312 312 312 312 312 313 313 313 312 312 312 312 311 311 310 309 308 307 307 306 306 305 305 304 304 303 303 303 303 302 302 301 301 300 300 299 298 297 296 295 294 294 294 293 293 292 291 290 289 288 287 286 285 284 283 282 281 280 279 278 277
311 311 312 312 312 312 312 312 312 313 313 313 313 313 313 313 313 313 313 312 312 311 310 309 308 308 307 307 306 306 305 305 304 304 304 303 303 303 302 301 301 300 300 299 298 297 296 296 295 295 295 294 294 293 292 291 290 289 288 287 287 286 285 284 283 282 281 280 278
311 312 312 312 312 312 312 313 313 313 313 314 314 314 314 314 314 313 313 313 312 311 310 309 309 308 308 307 306 306 305 305 305 305 305 304 304 303 302 301 301 301 300 300 299 298 297 297 296 296 296 296 295 294 294 292 291 290 289 289 288 288 287 286 285 284 283 281 279
312 312 312 312 312 312 313 313 313 314 314 314 314 314 314 314 314 314 313 313 312 311 310 310 309 309 308 308 307 306 306 306 306 306 305 305 304 303 303 302 301 301 301 301 300 299 299 298 298 298 298 297 297 296 295 294 293 292 291 291 291 290 289 288 286 285 283 281 280